COSMOS 2251 DEB, 34431

Orbit data source: Space-Track

COSMOS 2251 DEB, 34431 is space debris in LEO originally from a launch on Wed, 16 Jun 1993 UTC launched from the Plesetsk Missile And Space Complex (PKMTR). The debris from Iridium 33, an American commercial communications satellite, has been tracked extensively since its accidental collision with the defunct Russian satellite Cosmos 2251 in 2009. This event, occurring at high speed in low Earth orbit (LEO), generated thousands of pieces of space debris, significantly increasing the risk of further collisions. The Iridium 33 debris cloud has impacted space traffic management and orbital debris mitigation strategies, making it a subject of ongoing study in space situational awareness.

Loading next visibility...
Identifier
34431, 1993-036RY
Orbit
LEO
Country
Flag of CISCIS
Related business
Manufacturer
Unknown
Mission
Spacecraft
Bus & Motor
Unknown
Mass
Unknown
Launch date (UTC)
1993-06-16 (33 years ago)
Launch vehicle
Unknown
Launch site
Plesetsk Missile And Space Complex (PKMTR)
Object type
Payload
Rocket body
Debris
Shape & HBR
Unknown shape, 0.1 m
Radar Cross Section
Medium (>0.1 m² and <1 m²)

Expand to show TLE details & history
Last TLE update: 14 hours ago

TLE from 14 hours ago
0 COSMOS 2251 DEB
1 34431U 93036RY  26257.35541901  .00000735  00000-0  29071-3 0  9993
2 34431  74.0756  35.9502 0067955 312.5111  47.0309 14.29507394910801
Epoch: 2026-09-14T08:31Z
TLE epoch observation values (Epoch: 2026-09-14T08:31:48.202Z)
Latitude
-0.00008°
Longitude
-85.33757°
Altitude
762.939 km
Speed
7.49 km/s
True Right ascension
02h 23m 48s
True Declination
0° 00' 00"
Sunlit
Object was in full shadow at epoch
Visualization orbit readout
Latitude
Unknown
Longitude
Unknown
Altitude
Unknown
Speed
Unknown
Apparent Right ascension
Unknown
Apparent Declination
Unknown
Sunlit
N/A
Visualization observer readout
Local Sidereal Time
15:25:58
Azimuth
Unknown
Elevation
Unknown
Doppler factor
Unknown
Orbital elements
Apogee altitude
839.723 km
Perigee altitude
742.288 km
Semi-major axis
7,169.143 km
Eccentricity
0.0068
Inclination
74.0756°
RAAN
35.9502°
Arg. of periapsis
312.5111°
True anomaly
47.604°
Mean anomaly
47.0309°
Eccentric anomaly
47.31712°
Mean motion
3.57555 °/min
Orbital period
100.68 mins
BSTAR
0.00029071
Loading maneuver chart data...
Computing Atmospheric mass density...

Documentation

Showing up to 5 results
|